Home   Weather   Troisdorf   Past weeks

Flag for Germany Past Weather in Troisdorf, North Rhine-Westphalia, Germany — Yesterday and Last 2 Weeks

Now
45 °F

Scattered clouds.


Feels Like: 36 °F
Forecast: 39 / 47 °F
Wind: 21 mph from Southwest

Location: Koeln / Bonn

Current Time: Feb 28, 2017 at 11:03:33 am

Latest Report: Feb 28, 2017 at 10:20 am


Visibility: N/A

Pressure: 29.33 "Hg

Humidity: 57%

Dew Point: 30 °F

Location of TroisdorfLocation

Past Weather in Troisdorf — Graph

°F

Troisdorf Temperature Yesterday

Maximum temperature yesterday: 55 °F (at 3:20 pm)
Minimum temperature yesterday: 45 °F (at 7:50 pm)
Average temperature yesterday: 51 °F

High & Low Weather Summary for the Past Weeks

 TemperatureHumidityPressure
High61 °F (Feb 15, 2:50 pm)100% (Feb 16, 7:50 pm)30.54 "Hg (Feb 16, 7:50 pm)
Low30 °F (Feb 14, 6:20 am)39% (Feb 15, 2:20 pm)29.27 "Hg (Feb 28, 1:50 am)
Average45 °F76%30.05 "Hg
* Reported Feb 13 9:20 am — Feb 28 9:50 am, Troisdorf, Weather by CustomWeather, © 2017

Note: Actual official high and low records may vary slightly from our data, if they occured in-between our weather recording intervals... More about our weather records

Advertising

Troisdorf Weather History for the Previous 24 Hours

Scroll right to see more
 ConditionsComfort  
Time TempWeatherWind HumidityBarometerVisibility
9:50 am
Tue, Feb 28
45 °FScattered clouds.17 mph57%29.33 "HgN/A
9:20 am43 °FPassing clouds.14 mph66%29.33 "HgN/A
8:50 am43 °FPartly sunny.14 mph66%29.33 "HgN/A
8:20 am41 °FPassing clouds.15 mph70%29.33 "HgN/A
7:50 am41 °FScattered clouds.14 mph66%29.33 "HgN/A
7:20 am41 °FBroken clouds.14 mph66%29.33 "HgN/A
6:50 am41 °FPassing clouds.10 mph66%29.33 "HgN/A
6:20 am41 °FPassing clouds.10 mph66%29.30 "HgN/A
5:50 am41 °FPassing clouds.10 mph70%29.30 "HgN/A
5:20 am39 °FPassing clouds.7 mph81%29.30 "HgN/A
4:50 am39 °FPassing clouds.9 mph81%29.30 "HgN/A
4:20 am39 °FPassing clouds.10 mph81%29.30 "HgN/A
3:50 am41 °FPassing clouds.16 mph76%29.30 "HgN/A
3:20 am43 °FPassing clouds.18 mph76%29.30 "HgN/A
2:50 am43 °FPassing clouds.13 mph76%29.30 "HgN/A
2:20 am43 °FPartly cloudy.12 mph76%29.27 "HgN/A
1:50 am45 °FClear.14 mph71%29.27 "Hg10 mi
1:20 am45 °FClear.13 mph71%29.30 "Hg10 mi
12:50 am45 °FPassing clouds.16 mph71%29.30 "HgN/A
12:20 am45 °FPassing clouds.16 mph71%29.30 "HgN/A
11:50 pm
Mon, Feb 27
45 °FPassing clouds.15 mph76%29.30 "HgN/A
11:20 pm45 °FPassing clouds.14 mph76%29.33 "HgN/A
10:50 pm46 °FPassing clouds.15 mph71%29.30 "HgN/A
10:20 pm46 °FPassing clouds.16 mph76%29.30 "HgN/A
9:50 pm46 °FPassing clouds.12 mph76%29.33 "HgN/A
9:20 pm45 °FClear.14 mph87%29.30 "Hg10 mi
8:50 pm45 °FClear.12 mph87%29.33 "Hg10 mi
8:20 pm45 °FLight rain. Passing clouds.10 mph87%29.36 "HgN/A
7:50 pm45 °FLight rain. Passing clouds.10 mph87%29.36 "HgN/A
7:20 pm46 °FRain. Passing clouds.16 mph87%29.36 "HgN/A
6:50 pm50 °FRain. Passing clouds.25 mph76%29.36 "HgN/A
6:20 pm54 °FPassing clouds.18 mph58%29.33 "HgN/A
5:50 pm54 °FPartly sunny.18 mph54%29.33 "HgN/A
5:20 pm54 °FPartly sunny.18 mph54%29.36 "HgN/A
4:50 pm54 °FPartly sunny.18 mph54%29.39 "HgN/A
4:20 pm55 °FPartly sunny.18 mph51%29.42 "HgN/A
3:50 pm55 °FPartly sunny.16 mph51%29.45 "HgN/A
3:20 pm55 °FPartly sunny.14 mph51%29.45 "HgN/A
2:50 pm54 °FPartly sunny.18 mph54%29.47 "HgN/A
2:20 pm54 °FPartly sunny.21 mph58%29.47 "HgN/A
1:50 pm54 °FPartly sunny.18 mph58%29.50 "HgN/A
1:20 pm54 °FPartly sunny.17 mph58%29.53 "HgN/A
12:50 pm54 °FPartly sunny.16 mph58%29.56 "HgN/A
12:20 pm54 °FPartly sunny.17 mph58%29.56 "HgN/A
11:50 am54 °FPartly sunny.16 mph58%29.59 "HgN/A
11:20 am54 °FPartly sunny.16 mph58%29.59 "HgN/A
Weather by CustomWeather, © 2017

See weather overviewHow to use our weather pages